When you browse on this site, cookies collect data to enhance your experience and personalize the content and advertising you see.
Visit our Privacy Policy to learn more. By continuing to use the site, you agree to this use of cookies and data.

Hourly Weather Rhodes

Today, 6 July, Monday

Time Temperature Precipitation Wind Pressure Humidity
00:00 +23°C° 0 mm 6 mps 724 mmHg 78%
01:00 +23°C° 0 mm 6 mps 724 mmHg 83%
02:00 +23°C° 0 mm 6 mps 723 mmHg 86%
03:00 +22°C° 0 mm 6 mps 723 mmHg 88%
04:00 +22°C° 0 mm 6 mps 723 mmHg 91%
05:00 +22°C° 0 mm 6 mps 722 mmHg 93%
06:00 +25°C° 0 mm 5 mps 723 mmHg 82%
07:00 +27°C° 0 mm 5 mps 723 mmHg 71%
08:00 +30°C° 0 mm 4 mps 723 mmHg 57%
09:00 +32°C° 0 mm 4 mps 723 mmHg 52%
10:00 +33°C° 0 mm 5 mps 723 mmHg 47%
11:00 +35°C° 0 mm 5 mps 723 mmHg 41%
12:00 +35°C° 0 mm 6 mps 723 mmHg 41%
13:00 +35°C° 0 mm 6 mps 723 mmHg 41%
14:00 +34°C° 0 mm 6 mps 723 mmHg 43%
15:00 +33°C° 0 mm 6 mps 723 mmHg 44%
16:00 +33°C° 0 mm 6 mps 723 mmHg 46%
17:00 +32°C° 0 mm 6 mps 723 mmHg 48%
18:00 +28°C° 0 mm 6 mps 723 mmHg 61%
19:00 +26°C° 0 mm 5 mps 724 mmHg 75%
20:00 +22°C° 0 mm 5 mps 724 mmHg 89%
21:00 +22°C° 0 mm 5 mps 724 mmHg 88%
22:00 +22°C° 0 mm 5 mps 724 mmHg 86%
23:00 +22°C° 0 mm 4 mps 724 mmHg 85%

Tomorrow, 7 July, Tuesday

Time Temperature Precipitation Wind Pressure Humidity
00:00 +21°C° 0 mm 4 mps 724 mmHg 88%
01:00 +21°C° 0 mm 4 mps 724 mmHg 91%
02:00 +21°C° 0 mm 3 mps 724 mmHg 93%
03:00 +21°C° 0 mm 3 mps 724 mmHg 94%
04:00 +20°C° 0 mm 3 mps 724 mmHg 94%
05:00 +20°C° 0 mm 3 mps 723 mmHg 94%
06:00 +24°C° 0 mm 2 mps 724 mmHg 81%
07:00 +26°C° 0 mm 2 mps 724 mmHg 69%
08:00 +28°C° 0 mm 2 mps 725 mmHg 56%
09:00 +29°C° 0 mm 2 mps 725 mmHg 52%
10:00 +31°C° 0 mm 3 mps 725 mmHg 48%
11:00 +33°C° 0 mm 3 mps 725 mmHg 43%
12:00 +31°C° 0 mm 3 mps 725 mmHg 45%
13:00 +32°C° 0 mm 4 mps 726 mmHg 47%
14:00 +32°C° 0 mm 5 mps 726 mmHg 49%
15:00 +30°C° 0 mm 5 mps 726 mmHg 51%
16:00 +30°C° 0 mm 5 mps 725 mmHg 52%
17:00 +29°C° 0 mm 5 mps 725 mmHg 54%
18:00 +27°C° 0 mm 5 mps 726 mmHg 65%
19:00 +25°C° 0 mm 4 mps 726 mmHg 75%
20:00 +23°C° 0 mm 4 mps 726 mmHg 85%
21:00 +22°C° 0 mm 4 mps 726 mmHg 87%
22:00 +22°C° 0 mm 4 mps 726 mmHg 90%
23:00 +22°C° 0 mm 4 mps 727 mmHg 92%

Day after tomorrow, 8 July, Wednesday

Time Temperature Precipitation Wind Pressure Humidity
00:00 +22°C° 0 mm 4 mps 726 mmHg 92%
01:00 +21°C° 0 mm 4 mps 726 mmHg 92%
02:00 +21°C° 0 mm 4 mps 726 mmHg 91%
03:00 +22°C° 0 mm 5 mps 726 mmHg 92%
04:00 +22°C° 0 mm 5 mps 726 mmHg 92%
05:00 +22°C° 0 mm 5 mps 726 mmHg 93%
06:00 +25°C° 0 mm 4 mps 726 mmHg 82%
07:00 +27°C° 0 mm 4 mps 726 mmHg 70%
08:00 +29°C° 0 mm 3 mps 727 mmHg 59%
09:00 +30°C° 0 mm 3 mps 727 mmHg 56%
10:00 +31°C° 0 mm 3 mps 727 mmHg 53%
11:00 +33°C° 0 mm 3 mps 727 mmHg 50%
12:00 +34°C° 0 mm 3 mps 727 mmHg 47%
13:00 +34°C° 0 mm 4 mps 727 mmHg 44%
14:00 +35°C° 0 mm 4 mps 727 mmHg 41%
15:00 +35°C° 0 mm 4 mps 727 mmHg 43%
16:00 +34°C° 0 mm 4 mps 727 mmHg 44%
17:00 +33°C° 0 mm 4 mps 727 mmHg 46%
18:00 +32°C° 0 mm 4 mps 727 mmHg 53%
19:00 +29°C° 0 mm 4 mps 727 mmHg 60%
20:00 +27°C° 0 mm 3 mps 727 mmHg 67%
21:00 +27°C° 0 mm 4 mps 727 mmHg 67%
22:00 +27°C° 0 mm 4 mps 728 mmHg 67%
23:00 +27°C° 0 mm 4 mps 728 mmHg 67%

9 July, Thursday

Time Temperature Precipitation Wind Pressure Humidity
00:00 +26°C° 0 mm 3 mps 728 mmHg 70%
01:00 +26°C° 0 mm 3 mps 728 mmHg 73%
02:00 +25°C° 0 mm 3 mps 728 mmHg 76%
03:00 +25°C° 0 mm 3 mps 728 mmHg 77%
04:00 +24°C° 0 mm 3 mps 727 mmHg 78%
05:00 +24°C° 0 mm 3 mps 727 mmHg 79%
06:00 +26°C° 0 mm 3 mps 728 mmHg 70%
07:00 +28°C° 0 mm 3 mps 728 mmHg 61%
08:00 +30°C° 0 mm 3 mps 728 mmHg 52%
09:00 +33°C° 0 mm 3 mps 728 mmHg 48%
10:00 +35°C° 0 mm 3 mps 728 mmHg 43%
11:00 +36°C° 0 mm 4 mps 729 mmHg 39%
12:00 +36°C° 0 mm 4 mps 728 mmHg 40%
13:00 +35°C° 0 mm 5 mps 728 mmHg 41%
14:00 +34°C° 0 mm 6 mps 728 mmHg 42%
15:00 +33°C° 0 mm 6 mps 728 mmHg 44%
16:00 +33°C° 0 mm 6 mps 728 mmHg 47%
17:00 +32°C° 0 mm 6 mps 727 mmHg 50%
18:00 +29°C° 0 mm 6 mps 728 mmHg 58%
19:00 +27°C° 0 mm 6 mps 728 mmHg 67%
20:00 +25°C° 0 mm 5 mps 728 mmHg 75%
21:00 +25°C° 0 mm 5 mps 728 mmHg 75%
22:00 +25°C° 0 mm 5 mps 728 mmHg 74%
23:00 +25°C° 0 mm 5 mps 727 mmHg 73%

10 July, Friday

Time Temperature Precipitation Wind Pressure Humidity
00:00 +25°C° 0 mm 4 mps 727 mmHg 73%
01:00 +25°C° 0 mm 4 mps 727 mmHg 72%
02:00 +25°C° 0 mm 4 mps 727 mmHg 71%
03:00 +25°C° 0 mm 4 mps 727 mmHg 73%
04:00 +25°C° 0 mm 4 mps 727 mmHg 74%
05:00 +23°C° 0 mm 4 mps 726 mmHg 75%
06:00 +27°C° 0 mm 4 mps 727 mmHg 65%
07:00 +29°C° 0 mm 4 mps 727 mmHg 56%
08:00 +33°C° 0 mm 3 mps 727 mmHg 46%
09:00 +34°C° 0 mm 4 mps 727 mmHg 43%
10:00 +35°C° 0 mm 4 mps 728 mmHg 41%
11:00 +37°C° 0 mm 5 mps 728 mmHg 38%
12:00 +37°C° 0 mm 5 mps 728 mmHg 38%
13:00 +37°C° 0 mm 5 mps 728 mmHg 38%
14:00 +38°C° 0 mm 6 mps 727 mmHg 38%
15:00 +35°C° 0 mm 5 mps 727 mmHg 43%
16:00 +34°C° 0 mm 5 mps 727 mmHg 47%
17:00 +32°C° 0 mm 5 mps 727 mmHg 52%
18:00 +29°C° 0 mm 5 mps 728 mmHg 59%
19:00 +27°C° 0 mm 5 mps 728 mmHg 66%
20:00 +25°C° 0 mm 4 mps 728 mmHg 73%
21:00 +25°C° 0 mm 4 mps 728 mmHg 73%
22:00 +25°C° 0 mm 4 mps 728 mmHg 74%
23:00 +23°C° 0 mm 4 mps 728 mmHg 75%

11 July, Saturday

Time Temperature Precipitation Wind Pressure Humidity
00:00 +23°C° 0 mm 4 mps 728 mmHg 78%
01:00 +23°C° 0 mm 4 mps 728 mmHg 80%
02:00 +23°C° 0 mm 4 mps 727 mmHg 83%
03:00 +23°C° 0 mm 4 mps 727 mmHg 81%
04:00 +25°C° 0 mm 4 mps 727 mmHg 79%
05:00 +25°C° 0 mm 4 mps 727 mmHg 77%
06:00 +27°C° 0 mm 4 mps 727 mmHg 67%
07:00 +29°C° 0 mm 3 mps 728 mmHg 57%
08:00 +33°C° 0 mm 3 mps 728 mmHg 47%
09:00 +34°C° 0 mm 4 mps 728 mmHg 43%
10:00 +35°C° 0 mm 4 mps 728 mmHg 39%
11:00 +36°C° 0 mm 5 mps 728 mmHg 34%
12:00 +36°C° 0 mm 5 mps 728 mmHg 34%
13:00 +36°C° 0 mm 6 mps 728 mmHg 34%
14:00 +36°C° 0 mm 6 mps 728 mmHg 33%
15:00 +35°C° 0 mm 6 mps 728 mmHg 40%
16:00 +33°C° 0 mm 6 mps 728 mmHg 46%
17:00 +30°C° 0 mm 7 mps 727 mmHg 52%
18:00 +28°C° 0 mm 7 mps 727 mmHg 60%
19:00 +27°C° 0 mm 7 mps 727 mmHg 69%
20:00 +24°C° 0 mm 7 mps 727 mmHg 77%
21:00 +24°C° 0 mm 7 mps 728 mmHg 79%
22:00 +24°C° 0 mm 7 mps 728 mmHg 81%
23:00 +24°C° 0 mm 7 mps 728 mmHg 82%
Show more